MTN2869 KBZN-KDEN

Flight info

Callsign MTN2869
Flight time 1h 18m
Altitude 35000
Route BOY TOFUU FLATI4
Aircraft CRJ9/M-SDFGIRWY/S

Departure

Time 2026-04-25 11:48
Airport Bozeman Yellowstone International Airport (KBZN)

Arrival

Time 2026-04-25 13:06
Airport Denver International Airport (KDEN)
Time Latitude Longitude Altitude Speed Heading
2026-04-25 11:29 45.77968 -111.16144 4444 ft 0 kts 227°
2026-04-25 11:37 45.77976 -111.16131 4444 ft 3 kts 241°
2026-04-25 11:37 45.77981 -111.16108 4444 ft 3 kts 283°
2026-04-25 11:37 45.77974 -111.16083 4444 ft 3 kts 310°
2026-04-25 11:37 45.77971 -111.16078 4444 ft 0 kts 313°
2026-04-25 11:42 45.77974 -111.16083 4444 ft 2 kts 315°
2026-04-25 11:42 45.78003 -111.16093 4444 ft 4 kts 27°
2026-04-25 11:42 45.78034 -111.16041 4444 ft 9 kts 35°
2026-04-25 11:43 45.78095 -111.16070 4444 ft 12 kts 320°
2026-04-25 11:43 45.78167 -111.16160 4444 ft 16 kts 318°
2026-04-25 11:43 45.78254 -111.16281 4444 ft 19 kts 315°
2026-04-25 11:43 45.78356 -111.16424 4444 ft 21 kts 316°
2026-04-25 11:44 45.78462 -111.16573 4444 ft 22 kts 315°
2026-04-25 11:44 45.78573 -111.16728 4444 ft 22 kts 316°
2026-04-25 11:44 45.78671 -111.16811 4444 ft 12 kts 15°
2026-04-25 11:44 45.78725 -111.16748 4444 ft 6 kts 48°
2026-04-25 11:45 45.78729 -111.16743 4444 ft 0 kts 50°
2026-04-25 11:46 45.78730 -111.16741 4444 ft 1 kts 49°
2026-04-25 11:46 45.78744 -111.16716 4444 ft 4 kts 50°
2026-04-25 11:46 45.78762 -111.16686 4445 ft 5 kts 49°
2026-04-25 11:46 45.78787 -111.16643 4446 ft 7 kts 62°
2026-04-25 11:47 45.78764 -111.16577 4446 ft 17 kts 135°
2026-04-25 11:47 45.78543 -111.16271 4444 ft 77 kts 136°
2026-04-25 11:47 45.78009 -111.15534 4445 ft 132 kts 136°
2026-04-25 11:47 45.77260 -111.14494 4553 ft 156 kts 136°
2026-04-25 11:48 45.76455 -111.13423 4960 ft 161 kts 139°
2026-04-25 11:48 45.75574 -111.12347 5290 ft 170 kts 139°
2026-04-25 11:48 45.74718 -111.11158 5821 ft 178 kts 133°
2026-04-25 11:48 45.73858 -111.09776 6274 ft 197 kts 132°
2026-04-25 11:49 45.72887 -111.08196 6528 ft 224 kts 132°
2026-04-25 11:49 45.71781 -111.06471 6876 ft 245 kts 134°
2026-04-25 11:49 45.70542 -111.04658 7286 ft 264 kts 136°
2026-04-25 11:49 45.69210 -111.02763 7895 ft 273 kts 136°
2026-04-25 11:50 45.67858 -111.00824 8648 ft 277 kts 136°
2026-04-25 11:50 45.66642 -110.98669 9372 ft 283 kts 115°
2026-04-25 11:50 45.66048 -110.96005 10053 ft 288 kts 102°
2026-04-25 11:50 45.65716 -110.93087 10282 ft 311 kts 97°
2026-04-25 11:51 45.65467 -110.89883 10416 ft 337 kts 96°
2026-04-25 11:51 45.65221 -110.86506 11000 ft 344 kts 95°
2026-04-25 11:51 45.64932 -110.83089 11748 ft 349 kts 101°
2026-04-25 11:51 45.63964 -110.79905 12455 ft 354 kts 128°
2026-04-25 11:52 45.62184 -110.77457 13195 ft 358 kts 144°
2026-04-25 11:52 45.60100 -110.75472 13937 ft 363 kts 150°
2026-04-25 11:52 45.57922 -110.73602 14651 ft 367 kts 151°
2026-04-25 11:52 45.55717 -110.71705 15381 ft 372 kts 151°
2026-04-25 11:53 45.53505 -110.69738 16132 ft 377 kts 150°
2026-04-25 11:53 45.51312 -110.67713 16902 ft 382 kts 150°
2026-04-25 11:53 45.49074 -110.65627 17643 ft 387 kts 150°
2026-04-25 11:53 45.46810 -110.63514 18385 ft 392 kts 150°
2026-04-25 11:54 45.44517 -110.61385 19051 ft 395 kts 150°
2026-04-25 11:54 45.42196 -110.59241 19716 ft 400 kts 150°
2026-04-25 11:54 45.37489 -110.54885 21063 ft 408 kts 150°
2026-04-25 11:55 45.35097 -110.52671 21713 ft 412 kts 150°
2026-04-25 11:55 45.32686 -110.50442 22340 ft 416 kts 149°
2026-04-25 11:55 45.30251 -110.48193 22966 ft 419 kts 149°
2026-04-25 11:55 45.27789 -110.45921 23591 ft 422 kts 149°
2026-04-25 11:56 45.25316 -110.43638 24110 ft 426 kts 149°
2026-04-25 11:56 45.22824 -110.41342 24607 ft 429 kts 150°
2026-04-25 11:56 45.20314 -110.39035 25116 ft 432 kts 150°
2026-04-25 11:56 45.17780 -110.36708 25602 ft 435 kts 150°
2026-04-25 11:57 45.15232 -110.34374 26088 ft 438 kts 150°
2026-04-25 11:57 45.12697 -110.32053 26531 ft 441 kts 150°
2026-04-25 11:57 45.10108 -110.29685 26975 ft 445 kts 151°
2026-04-25 11:57 45.07500 -110.27300 27394 ft 448 kts 151°
2026-04-25 11:58 45.04870 -110.24900 27821 ft 451 kts 152°
2026-04-25 11:58 45.02217 -110.22481 28134 ft 456 kts 152°
2026-04-25 11:58 44.99541 -110.20045 28593 ft 457 kts 152°
2026-04-25 11:58 44.96873 -110.17617 29261 ft 453 kts 153°
2026-04-25 11:59 44.94258 -110.15167 30029 ft 450 kts 149°
2026-04-25 11:59 44.91829 -110.12374 30503 ft 453 kts 143°
2026-04-25 11:59 44.89520 -110.09301 30687 ft 460 kts 141°
2026-04-25 12:00 44.84897 -110.02980 31288 ft 463 kts 142°
2026-04-25 12:00 44.82532 -109.99915 31746 ft 459 kts 143°
2026-04-25 12:00 44.77837 -109.93894 32661 ft 455 kts 143°
2026-04-25 12:01 44.75495 -109.90881 32940 ft 457 kts 143°
2026-04-25 12:01 44.73141 -109.87858 33213 ft 458 kts 143°
2026-04-25 12:01 44.70780 -109.84831 33537 ft 459 kts 143°
2026-04-25 12:01 44.68419 -109.81805 33906 ft 457 kts 142°
2026-04-25 12:02 44.63745 -109.75832 34451 ft 457 kts 143°
2026-04-25 12:02 44.61390 -109.72824 34655 ft 458 kts 142°
2026-04-25 12:02 44.59023 -109.69805 34744 ft 461 kts 142°
2026-04-25 12:03 44.54231 -109.63702 34903 ft 468 kts 143°
2026-04-25 12:03 44.51815 -109.60632 35016 ft 471 kts 143°
2026-04-25 12:03 44.49379 -109.57538 35064 ft 475 kts 143°
2026-04-25 12:04 44.44460 -109.51305 35088 ft 478 kts 143°
2026-04-25 12:04 44.39548 -109.45094 35085 ft 480 kts 143°
2026-04-25 12:05 44.34571 -109.38822 35085 ft 482 kts 143°
2026-04-25 12:05 44.29570 -109.32528 35090 ft 485 kts 143°
2026-04-25 12:06 44.24541 -109.26221 35077 ft 487 kts 143°
2026-04-25 12:06 44.19497 -109.19905 35077 ft 488 kts 143°
2026-04-25 12:07 44.14471 -109.13626 35073 ft 486 kts 143°
2026-04-25 12:07 44.09435 -109.07355 35072 ft 483 kts 143°
2026-04-25 12:08 44.04425 -109.01127 35073 ft 481 kts 144°
2026-04-25 12:08 43.99473 -108.94989 35068 ft 479 kts 144°
2026-04-25 12:09 43.94505 -108.88842 35071 ft 477 kts 144°
2026-04-25 12:09 43.89548 -108.82726 35066 ft 475 kts 144°
2026-04-25 12:10 43.84612 -108.76648 35055 ft 474 kts 144°
2026-04-25 12:10 43.79681 -108.70590 35037 ft 473 kts 144°
2026-04-25 12:11 43.74759 -108.64557 35016 ft 472 kts 144°
2026-04-25 12:11 43.69871 -108.58579 35005 ft 471 kts 145°
2026-04-25 12:12 43.65756 -108.53560 34999 ft 471 kts 145°
2026-04-25 12:12 43.60020 -108.46575 35000 ft 474 kts 145°
2026-04-25 12:13 43.55073 -108.40564 35007 ft 475 kts 145°
2026-04-25 12:13 43.50098 -108.34556 35017 ft 474 kts 148°
2026-04-25 12:14 43.47381 -108.32104 35018 ft 461 kts 160°
2026-04-25 12:14 43.44487 -108.30249 35035 ft 457 kts 164°
2026-04-25 12:14 43.38613 -108.27100 35046 ft 455 kts 168°
2026-04-25 12:15 43.32602 -108.24500 35026 ft 451 kts 172°
2026-04-25 12:15 43.26533 -108.22268 35014 ft 452 kts 172°
2026-04-25 12:16 43.20467 -108.19948 35006 ft 453 kts 172°
2026-04-25 12:16 43.14388 -108.17585 34996 ft 453 kts 172°
2026-04-25 12:17 43.08346 -108.15238 35000 ft 454 kts 172°
2026-04-25 12:17 43.02273 -108.12888 35003 ft 454 kts 172°
2026-04-25 12:18 42.96195 -108.10538 35010 ft 454 kts 172°
2026-04-25 12:18 42.90117 -108.08194 35019 ft 454 kts 172°
2026-04-25 12:19 42.80970 -108.04674 35027 ft 454 kts 172°
2026-04-25 12:20 42.74926 -108.02354 35032 ft 454 kts 172°
2026-04-25 12:20 42.68844 -108.00026 35033 ft 454 kts 172°
2026-04-25 12:21 42.62759 -107.97702 35036 ft 454 kts 172°
2026-04-25 12:21 42.56672 -107.95380 35033 ft 454 kts 172°
2026-04-25 12:22 42.50585 -107.93064 35032 ft 454 kts 172°
2026-04-25 12:22 42.44497 -107.90753 35031 ft 454 kts 172°
2026-04-25 12:23 42.38441 -107.88455 35017 ft 454 kts 172°
2026-04-25 12:23 42.32351 -107.86153 35020 ft 454 kts 172°
2026-04-25 12:24 42.26253 -107.83854 35022 ft 455 kts 172°
2026-04-25 12:24 42.20152 -107.81553 35016 ft 455 kts 172°
2026-04-25 12:25 42.14039 -107.79320 35013 ft 454 kts 174°
2026-04-25 12:25 42.07896 -107.77291 35008 ft 456 kts 173°
2026-04-25 12:26 42.01775 -107.74896 34998 ft 458 kts 172°
2026-04-25 12:26 41.95647 -107.72483 34990 ft 459 kts 172°
2026-04-25 12:27 41.89547 -107.70121 34982 ft 459 kts 172°
2026-04-25 12:27 41.83596 -107.66753 34974 ft 477 kts 153°
2026-04-25 12:28 41.78200 -107.61506 34962 ft 481 kts 148°
2026-04-25 12:28 41.74070 -107.56407 34952 ft 490 kts 137°
2026-04-25 12:29 41.69657 -107.49397 34943 ft 492 kts 135°
2026-04-25 12:29 41.65116 -107.42542 34936 ft 491 kts 137°
2026-04-25 12:30 41.60539 -107.35799 34922 ft 492 kts 137°
2026-04-25 12:30 41.55953 -107.28991 34928 ft 492 kts 137°
2026-04-25 12:31 41.51383 -107.22246 34907 ft 492 kts 137°
2026-04-25 12:31 41.46780 -107.15473 34914 ft 492 kts 137°
2026-04-25 12:32 41.42176 -107.08706 34913 ft 493 kts 137°
2026-04-25 12:32 41.37567 -107.01938 34923 ft 492 kts 137°
2026-04-25 12:33 41.32962 -106.95201 34922 ft 492 kts 137°
2026-04-25 12:33 41.28358 -106.88468 34912 ft 492 kts 137°
2026-04-25 12:34 41.23746 -106.81748 34901 ft 491 kts 137°
2026-04-25 12:34 41.19164 -106.75079 34876 ft 491 kts 137°
2026-04-25 12:35 41.14552 -106.68386 34846 ft 491 kts 137°
2026-04-25 12:35 41.09944 -106.61713 34820 ft 490 kts 137°
2026-04-25 12:36 41.05332 -106.55050 34804 ft 490 kts 137°
2026-04-25 12:36 41.00749 -106.48444 34791 ft 489 kts 137°
2026-04-25 12:36 40.98437 -106.45116 34373 ft 490 kts 137°
2026-04-25 12:37 40.96126 -106.41793 33888 ft 491 kts 137°
2026-04-25 12:37 40.93811 -106.38467 33360 ft 492 kts 137°
2026-04-25 12:37 40.91490 -106.35136 32810 ft 492 kts 137°
2026-04-25 12:37 40.89175 -106.31817 32281 ft 491 kts 137°
2026-04-25 12:38 40.86870 -106.28490 31758 ft 491 kts 134°
2026-04-25 12:38 40.84854 -106.24833 31248 ft 494 kts 126°
2026-04-25 12:38 40.83046 -106.20974 30750 ft 494 kts 123°
2026-04-25 12:38 40.81434 -106.16960 30262 ft 496 kts 118°
2026-04-25 12:39 40.80006 -106.12807 29780 ft 496 kts 116°
2026-04-25 12:39 40.78637 -106.08693 29213 ft 496 kts 116°
2026-04-25 12:39 40.77234 -106.04536 28672 ft 495 kts 117°
2026-04-25 12:39 40.75777 -106.00427 28133 ft 495 kts 118°
2026-04-25 12:40 40.74307 -105.96328 27596 ft 489 kts 118°
2026-04-25 12:40 40.72889 -105.92338 27042 ft 472 kts 118°
2026-04-25 12:40 40.71508 -105.88476 26502 ft 459 kts 118°
2026-04-25 12:40 40.70156 -105.84722 25975 ft 448 kts 118°
2026-04-25 12:41 40.68839 -105.81051 25471 ft 438 kts 118°
2026-04-25 12:41 40.67543 -105.77455 24967 ft 430 kts 118°
2026-04-25 12:41 40.66263 -105.73903 24505 ft 432 kts 118°
2026-04-25 12:41 40.64971 -105.70315 24049 ft 433 kts 118°
2026-04-25 12:42 40.63698 -105.66786 23579 ft 431 kts 118°
2026-04-25 12:42 40.62829 -105.64384 23247 ft 430 kts 118°
2026-04-25 12:42 40.61129 -105.59679 22500 ft 429 kts 118°
2026-04-25 12:42 40.59857 -105.56166 21944 ft 418 kts 118°
2026-04-25 12:43 40.58617 -105.52750 21494 ft 407 kts 118°
2026-04-25 12:43 40.57406 -105.49419 21099 ft 400 kts 118°
2026-04-25 12:43 40.55032 -105.42887 20342 ft 391 kts 118°
2026-04-25 12:44 40.53856 -105.39666 19976 ft 390 kts 118°
2026-04-25 12:44 40.52686 -105.36462 19623 ft 388 kts 118°
2026-04-25 12:44 40.50390 -105.30178 18920 ft 375 kts 118°
2026-04-25 12:45 40.49273 -105.27127 18569 ft 365 kts 118°
2026-04-25 12:45 40.48182 -105.24153 18181 ft 357 kts 118°
2026-04-25 12:45 40.45955 -105.18396 17379 ft 348 kts 131°
2026-04-25 12:46 40.44258 -105.16209 17016 ft 339 kts 147°
2026-04-25 12:46 40.42354 -105.14434 16740 ft 334 kts 151°
2026-04-25 12:46 40.40415 -105.12775 16495 ft 331 kts 152°
2026-04-25 12:46 40.38514 -105.11153 16368 ft 329 kts 151°
2026-04-25 12:47 40.36617 -105.09471 16240 ft 328 kts 150°
2026-04-25 12:47 40.34737 -105.07736 16113 ft 333 kts 149°
2026-04-25 12:47 40.32836 -105.05966 15984 ft 337 kts 149°
2026-04-25 12:47 40.30911 -105.04179 15859 ft 341 kts 149°
2026-04-25 12:48 40.28963 -105.02373 15729 ft 344 kts 149°
2026-04-25 12:48 40.26993 -105.00551 15631 ft 348 kts 149°
2026-04-25 12:48 40.25005 -104.98719 15515 ft 351 kts 149°
2026-04-25 12:48 40.23002 -104.96877 15395 ft 352 kts 149°
2026-04-25 12:49 40.21047 -104.95064 15262 ft 335 kts 148°
2026-04-25 12:49 40.19196 -104.93336 15115 ft 320 kts 148°
2026-04-25 12:49 40.17370 -104.91815 14960 ft 302 kts 157°
2026-04-25 12:49 40.15522 -104.90685 14797 ft 296 kts 163°
2026-04-25 12:50 40.13604 -104.89720 14666 ft 296 kts 164°
2026-04-25 12:50 40.11671 -104.88748 14543 ft 298 kts 163°
2026-04-25 12:50 40.09764 -104.87698 14426 ft 296 kts 161°
2026-04-25 12:50 40.07876 -104.86614 14301 ft 298 kts 161°
2026-04-25 12:51 40.05963 -104.85537 14187 ft 300 kts 162°
2026-04-25 12:51 40.04037 -104.84460 14067 ft 302 kts 161°
2026-04-25 12:51 40.02105 -104.83346 13943 ft 303 kts 161°
2026-04-25 12:51 40.00166 -104.82234 13735 ft 307 kts 161°
2026-04-25 12:52 39.98196 -104.81121 13473 ft 308 kts 162°
2026-04-25 12:52 39.96165 -104.80437 13221 ft 298 kts 179°
2026-04-25 12:52 39.94109 -104.80317 12953 ft 295 kts 185°
2026-04-25 12:52 39.92063 -104.80409 12694 ft 293 kts 187°
2026-04-25 12:53 39.90028 -104.80549 12449 ft 292 kts 187°
2026-04-25 12:53 39.87997 -104.80684 12196 ft 292 kts 187°
2026-04-25 12:53 39.85985 -104.80770 11941 ft 286 kts 186°
2026-04-25 12:53 39.84007 -104.80816 11688 ft 282 kts 185°
2026-04-25 12:54 39.82094 -104.80885 11432 ft 276 kts 186°
2026-04-25 12:54 39.80190 -104.81016 11177 ft 271 kts 187°
2026-04-25 12:54 39.78343 -104.81166 11064 ft 261 kts 187°
2026-04-25 12:54 39.76568 -104.81317 11001 ft 253 kts 187°
2026-04-25 12:55 39.74810 -104.81474 10981 ft 253 kts 188°
2026-04-25 12:55 39.73626 -104.81581 10976 ft 252 kts 188°
2026-04-25 12:55 39.71317 -104.81790 10976 ft 250 kts 187°
2026-04-25 12:55 39.69587 -104.81946 10972 ft 249 kts 188°
2026-04-25 12:56 39.67866 -104.82100 10973 ft 247 kts 187°
2026-04-25 12:56 39.66162 -104.82252 10974 ft 245 kts 187°
2026-04-25 12:56 39.64462 -104.82405 10977 ft 244 kts 187°
2026-04-25 12:56 39.62758 -104.82561 10993 ft 247 kts 188°
2026-04-25 12:57 39.61039 -104.82721 11000 ft 248 kts 188°
2026-04-25 12:57 39.59305 -104.82886 11002 ft 250 kts 187°
2026-04-25 12:57 39.57562 -104.83051 11001 ft 252 kts 187°
2026-04-25 12:57 39.55791 -104.83210 10885 ft 257 kts 184°
2026-04-25 12:58 39.54069 -104.82613 10758 ft 263 kts 148°
2026-04-25 12:58 39.52894 -104.80810 10649 ft 267 kts 112°
2026-04-25 12:58 39.52412 -104.78532 10526 ft 263 kts 102°
2026-04-25 12:58 39.52081 -104.76228 10389 ft 258 kts 100°
2026-04-25 12:59 39.51799 -104.73948 10242 ft 255 kts 99°
2026-04-25 12:59 39.51539 -104.71683 10109 ft 252 kts 98°
2026-04-25 12:59 39.51293 -104.69461 10035 ft 246 kts 98°
2026-04-25 12:59 39.51060 -104.67299 9984 ft 238 kts 98°
2026-04-25 13:00 39.51074 -104.65216 9930 ft 227 kts 68°
2026-04-25 13:00 39.51292 -104.64598 9935 ft 221 kts 53°
2026-04-25 13:00 39.53279 -104.63438 9880 ft 181 kts 336°
2026-04-25 13:00 39.54367 -104.64095 9795 ft 169 kts 326°
2026-04-25 13:01 39.55412 -104.64877 9908 ft 185 kts 326°
2026-04-25 13:01 39.56576 -104.65764 10010 ft 205 kts 327°
2026-04-25 13:01 39.58023 -104.66300 10081 ft 232 kts 354°
2026-04-25 13:01 39.59692 -104.66356 10287 ft 243 kts 356°
2026-04-25 13:02 39.61409 -104.66329 9995 ft 258 kts 358°
2026-04-25 13:02 39.63293 -104.66295 9423 ft 282 kts 359°
2026-04-25 13:02 39.65257 -104.66261 8928 ft 275 kts 359°
2026-04-25 13:02 39.67099 -104.66231 8583 ft 254 kts 358°
2026-04-25 13:03 39.68792 -104.66213 8306 ft 233 kts 358°
2026-04-25 13:03 39.70355 -104.66197 8018 ft 215 kts 359°
2026-04-25 13:03 39.71791 -104.66184 7734 ft 199 kts 358°
2026-04-25 13:03 39.73124 -104.66171 7459 ft 186 kts 359°
2026-04-25 13:04 39.74399 -104.66158 7254 ft 181 kts 359°
2026-04-25 13:04 39.75641 -104.66151 7004 ft 175 kts 359°
2026-04-25 13:04 39.76829 -104.66134 6751 ft 165 kts 360°
2026-04-25 13:04 39.77898 -104.66093 6642 ft 150 kts
2026-04-25 13:05 39.78966 -104.66040 6414 ft 155 kts 360°
2026-04-25 13:05 39.80048 -104.66078 6142 ft 153 kts
2026-04-25 13:05 39.81120 -104.66044 5851 ft 154 kts 358°
2026-04-25 13:05 39.82173 -104.66073 5561 ft 151 kts
2026-04-25 13:06 39.83199 -104.66052 5382 ft 139 kts
2026-04-25 13:06 39.84043 -104.66038 5364 ft 100 kts 359°
2026-04-25 13:06 39.84585 -104.66029 5364 ft 56 kts 360°
2026-04-25 13:06 39.84890 -104.66028 5362 ft 35 kts 360°
2026-04-25 13:07 39.85112 -104.66047 5361 ft 30 kts 343°
2026-04-25 13:07 39.85285 -104.66151 5364 ft 26 kts 334°
2026-04-25 13:07 39.85432 -104.66233 5364 ft 19 kts 352°
2026-04-25 13:07 39.85561 -104.66238 5364 ft 18 kts 359°
2026-04-25 13:08 39.85666 -104.66249 5363 ft 13 kts 322°
2026-04-25 13:08 39.85679 -104.66350 5364 ft 11 kts 270°
2026-04-25 13:08 39.85679 -104.66449 5364 ft 11 kts 270°
2026-04-25 13:08 39.85666 -104.66539 5364 ft 10 kts 250°
2026-04-25 13:09 39.85657 -104.66622 5364 ft 9 kts 269°
2026-04-25 13:09 39.85665 -104.66692 5362 ft 5 kts 326°
2026-04-25 13:09 39.85695 -104.66692 5364 ft 4 kts
2026-04-25 13:09 39.85720 -104.66692 5364 ft 3 kts
2026-04-25 13:10 39.85742 -104.66691 5364 ft 3 kts
2026-04-25 13:10 39.85754 -104.66691 5364 ft 0 kts